Theta_e
313 310 311 312 313 314 315 316 317 318 320 324 325 325 324 323 323 324 323 322 322 321
302 303 304 305 306 307 304 306 305 306 309 311 313 316 320 320 320 320 321 321 321 321
299 300 300 301 300 300 301 301 302 302 302 303 304 305 305 306 309 313 316 316 315 316
297 298 298 298 298 298 299 300 300 300 301 301 302 302 302 302 303 303 303 304 305 306
293 294 294 294 295 296 296 297 298 298 299 299 300 299 299 298 297 296 296 297 298 298
289 289 290 291 292 293 293 293 295 295 295 295 296 296 296 294 294 294 294 295 295 296
285 286 286 287 288 289 290 290 291 291 292 293 293 294 292 292 291 291 293 294 294 295
283 283 283 283 284 286 287 288 288 288 288 289 291 292 289 289 289 289 289 291 293 295
279 280 280 280 282 282 283 284 285 285 286 286 287 290 291 290 287 287 287 288 290 292
277 277 278 279 279 279 279 280 280 282 282 283 284 288 289 289 286 286 287 287 287 288
275 275 276 276 277 277 277 277 278 279 280 281 283 286 287 287 286 286 286 286 285 285
273 273 274 274 274 275 276 277 277 279 280 281 282 285 286 285 283 283 282 282 283 283
273 273 273 273 273 275 275 276 277 278 280 280 279 282 282 283 282 280 279 280 281 282
272 273 273 273 273 274 274 275 275 276 277 277 278 277 279 281 279 278 278 278 278 280
Wind_Speed
2 2 3 4 4 4 3 2 1 5 6 7 8 8 7 5 5 6 7 10 9 8
6 6 4 4 4 3 4 3 5 5 3 4 5 4 4 3 5 6 7 8 7 7
6 6 5 5 6 5 5 5 5 5 6 6 5 4 4 3 4 4 3 3 5 5
6 6 6 6 6 6 6 6 6 6 6 5 5 5 5 5 5 5 5 4 4 5
7 7 7 7 7 6 6 6 6 6 6 5 5 5 5 4 5 5 5 6 6 5
9 8 8 8 8 7 7 6 6 5 5 5 5 5 4 4 4 4 4 5 5 5
9 9 8 8 8 8 7 6 6 5 5 5 5 4 5 5 5 5 5 5 5 5
9 9 8 9 8 8 8 7 6 6 6 6 5 3 4 4 5 6 6 6 6 6
10 10 10 9 9 8 9 9 8 8 7 6 5 11 8 6 4 5 6 6 6 5
10 10 9 9 9 9 9 9 8 8 8 8 7 15 16 13 5 6 6 6 5 5
9 9 9 8 8 8 7 7 7 8 8 7 6 14 14 15 6 6 7 7 8 8
10 10 9 10 10 9 8 7 7 7 9 9 7 14 15 12 6 6 7 6 7 9
10 9 9 10 10 9 8 10 8 9 6 8 8 15 19 15 6 7 6 6 6 10
10 10 10 10 9 9 9 9 8 9 8 8 8 9 17 18 9 7 7 7 7 5
Wind_Direction
39 221 231 230 225 228 233 231 143 206 211 221 227 225 218 207 221 219 226 235 232 236
39 41 43 46 54 65 48 50 45 41 48 39 24 1 315 250 235 224 223 231 230 234
47 40 43 50 50 41 35 35 35 30 21 7 5 358 351 320 320 297 276 266 258 257
38 38 45 46 36 28 27 21 23 16 7 6 7 9 2 352 353 354 348 349 350 314
36 31 34 31 21 18 22 18 16 11 7 3 2 358 6 17 6 355 337 329 326 313
35 30 25 21 16 15 11 9 12 14 8 357 352 355 23 24 6 343 323 314 311 307
33 28 24 19 14 8 1 4 2 1 355 359 356 35 14 360 347 328 319 304 299 300
26 25 20 17 11 9 9 6 359 1 359 1 6 41 16 357 335 322 315 303 301 297
24 20 13 9 12 15 13 7 5 3 358 6 6 350 351 351 326 311 304 303 296 296
19 13 8 6 10 13 8 358 356 358 359 353 350 355 353 349 327 305 296 295 298 293
12 8 360 3 2 1 354 352 346 346 345 343 342 348 351 340 317 321 308 322 324 314
6 1 358 1 355 347 344 345 349 344 336 338 340 353 0 355 330 333 329 323 319 315
5 1 2 354 352 339 344 343 343 338 343 343 354 0 359 349 343 342 328 313 308 312
0 351 3 350 343 340 342 344 337 339 346 344 353 348 352 347 345 326 322 328 312 310